www.pogodaiklimat.ru

Погода и климат >> Архив погоды >> Мозамбик >> Quelimane


ПОГОДА в Quelimane

  • Прогноз погоды в Quelimane
  • Монитор погоды в Quelimane
  • Климат города

АРХИВ ПОГОДЫ в Quelimane

Время (UTC), дата Ветер
(напр.,м/с)
 
Видим.   Явления Облачность Т
(С)
Тd
(С)
f
(%)
Тe
(С)
Тes
(С)
Комфортность P
(гПа)
Po
(гПа)
Тmin
(С)
Tmax
(С)
R
(мм)
R24
(мм)
S
(см)
06 23.04 З 1 30 км 9/6 600 м
[Cu med, cong Ac trans]
+22.2 +20.7 91 +29 +30 очень
душно
1017.4 1017.0 +20.5 0.3
09 23.04 штиль 0 30 км 8/6 600 м
[Cu med, cong Ac trans]
+26.8 +22.7 78 +35 +41 очень
душно
1016.3 1016.0
12 23.04 В 2 30 км 8/6 600 м
[Cu med, cong Ac trans]
+28.8 +21.0 63 +36 +39 очень
душно
1014.6 1015.0
15 23.04 ЮВ 1 30 км 9/6 600 м
[Cu med, cong Ac trans]
+26.8 +22.4 77 +35 +35 очень
душно
1015.0 1015.0
18 23.04 ЮЗ 2 15 км слабая морось 9/6 300 м
[Cu med, cong Ac trans]
+26.0 +22.1 79 +34 +34 очень
душно
1016.1 1016.0 +29.0
21 23.04 штиль 0 30 км {морось} 9/5 600 м
[Cu med, cong Ac trans]
+24.6 +22.2 87 +32 +32 очень
душно
1016.8 1017.0
00 24.04 З 1 30 км 9/6 600 м
[Cu med, cong Ac trans]
+24.2 +22.1 88 +31 +31 очень
душно
1016.1 1016.0 0.3
03 24.04 штиль 0 30 км 9/6 600 м
[Cu med, cong Ac trans]
+23.6 +21.8 90 +30 +30 очень
душно
1015.5 1016.0
06 24.04 З 1 30 км 6/3 600 м
[Cu med, cong Ac trans Ci fib]
+25.4 +22.8 86 +34 +37 очень
душно
1017.6 1018.0 +20.6 0.3
09 24.04 Ю 1 30 км 8/6 600 м
[Cu med, cong Ac trans]
+28.8 +20.3 60 +35 +40 очень
душно
1017.0 1017.0
12 24.04 З 3 15 км слабая морось {дождь, метель} 8/8 300 м
[Cu med, cong Ac trans]
+24.4 +22.3 88 +32 +33 очень
душно
1015.9 1016.0 6
18 24.04 ЮЗ 2 9000 м слабая морось 10/9 200 м
[Cu med, cong Ac As]
+21.8 +20.9 95 +28 +28 душно 1020.1 1020.0 +29.5 8
21 24.04 З 2 9000 м слабая морось 10/9 200 м
[Cu med, cong Ac As]
+22.4 +20.9 91 +29 +29 очень
душно
1020.7 1021.0
00 25.04 З 3 30 км {морось} 10/9 200 м
[Cu med, cong Ac As]
+21.8 +20.9 95 +28 +28 душно 1020.7 1021.0 2
03 25.04 З 2 30 км слабая морось 9/8 300 м
[Cu med, cong Ac As]
+21.2 +20.6 96 +26 +26 душно 1018.9 1019.0
06 25.04 З 2 30 км {морось} 9/6 600 м
[Cu med, cong Ac trans]
+20.6 +18.4 87 +25 +26 комфорт 1020.5 1021.0 +19.4 10
09 25.04 З 3 30 км 9/5 600 м
[Cu med, cong Ac trans]
+25.2 +21.0 78 +32 +35 очень
душно
1020.3 1020.0
12 25.04 Ю 1 8000 м слабый дождь {морось} 10/8 200 м
[Cu med, cong Ac As]
+22.0 +20.5 91 +28 +29 душно 1018.6 1019.0 6
15 25.04 ЮЗ 1 25 км в посл. час морось {дождь} 9/8 300 м
[Cu med, cong Ac As]
+22.0 +20.5 91 +28 +28 душно 1018.3 1018.0
18 25.04 З 1 25 км в посл. час дождь 9/8 300 м
[Cu med, cong Ac As]
+21.6 +20.7 95 +27 +27 душно 1019.7 1020.0 +26.2 10
21 25.04 З 1 30 км 8/6 600 м
[Cu med, cong Ac trans]
+21.2 +20.4 95 +26 +26 душно 1019.4 1019.0
00 26.04 З 1 30 км в посл. час морось 9/6 300 м
[Cu med, cong Ac As]
+20.2 +19.6 96 +25 +25 комфорт 1018.1 1018.0 0.8
03 26.04 З 1 9000 м слабый дождь 9/8 300 м
[Cu med, cong Ac As]
+20.0 +19.4 96 +24 +24 комфорт 1018.2 1018.0
06 26.04 Ю 1 9000 м слабый дождь {морось} 10/8 300 м
[Cu med, cong Ac As]
+22.5 +21.8 96 +30 +30 очень
душно
1020.0 1020.0 +20.8 32
09 26.04 ЮВ 3 30 км в посл. час морось {дождь} 9/8 300 м
[Cu med, cong Ac As]
+26.5 +21.3 73 +34 +35 очень
душно
1019.2 1019.0
12 26.04 ЮВ 3 30 км {дождь} 6/6 600 м
[Cu med, cong Ac trans]
+28.0 +19.6 60 +34 +37 очень
душно
1017.2 1017.0 1
15 26.04 Ю 4 30 км 8/4 600 м
[Cu med, cong Ac trans]
+24.8 +21.8 83 +32 +32 очень
душно
1018.5 1019.0
18 26.04 ЮЗ 3 30 км 6/4 600 м
[Cu med, cong Ac trans]
+24.0 +21.6 86 +31 +31 очень
душно
1020.7 1021.0 +28.4 1
21 26.04 ЮЗ 2 30 км 4/4 600 м
[Cu med, cong]
+23.4 +21.0 86 +31 +31 очень
душно
1020.5 1021.0
00 27.04 З 1 30 км 4/4 600 м
[Cu med, cong]
+21.8 +20.3 91 +28 +28 душно 1019.5 1020.0
03 27.04 З 2 30 км 4/4 600 м
[Cu med, cong]
+21.0 +20.1 95 +27 +27 душно 1019.5 1020.0
06 27.04 ЮЗ 3 30 км 4/3 600 м
[Cu med, cong Ac trans]
+23.0 +20.2 84 +30 +33 очень
душно
1021.9 1022.0 +20.5 1
09 27.04 Ю 4 30 км 8/8 600 м
[Cu med, cong Ac trans]
+27.4 +19.1 61 +33 +35 очень
душно
1021.9 1022.0
12 27.04 Ю 5 30 км 5/5 600 м
[Cu med, cong]
+28.0 +19.8 61 +34 +36 очень
душно
1019.7 1020.0
15 27.04 Ю 5 30 км 3/3 600 м
[Cu med, cong]
+25.8 +18.3 63 +30 +30 душно 1020.1 1020.0
18 27.04 Ю 2 30 км 1/1 600 м
[Cu med, cong]
+23.6 +19.2 76 +28 +28 душно 1020.3 1020.0 +28.5
09 28.04 ЮЗ 3 30 км 6/6 600 м
[Cu med, cong]
+27.8 +21.4 68 +35 +40 очень
душно
1021.4 1021.0
18 28.04 З 3 30 км 1/1 600 м
[Cu med, cong Ac trans]
+24.0 +20.3 80 +30 +30 очень
душно
1020.7 1021.0 +29.0
12 29.04 З 3 30 км 6/6 600 м
[Cu med, cong]
+28.8 +20.7 62 +36 +39 очень
душно
1018.6 1019.0
15 29.04 ЮВ 3 30 км 5/5 600 м
[Cu med, cong Ac trans]
+26.6 +23.7 84 +36 +36 очень
душно
1018.4 1018.0

 

Местоположение метеостанции Quelimane (Мозамбик): широта -17.88 долгота 36.88 высота над уровнем моря 16 м.

В архиве по умолчанию представлена погода в Quelimane за последнюю неделю. Архивные данные за месяц целиком и за предыдущие месяцы, начиная с января 2011 года, Вы можете получить, выбрав интересующий диапазон дат из раскрывающегося списка и нажав кнопку "Ввод!".

Внимание! Время в таблицах - всемирное. Для получения местного времени необходимо прибавить поправку, которая в Quelimane равна 2 ч.

Смотрите также архив погоды в соседних городах и на ближайших метеорологических станциях:

Погода в Pebane (Мозамбик) (151 км)
Погода в Caia (Мозамбик) (164 км)
Погода в Beira (Мозамбик) (298 км)
Погода в Chichiri (Малави) (306 км)
Погода в Chileka (Малави) (318 км)
Погода в Cuamba (Мозамбик) (341 км)
Погода в Angoche (Мозамбик) (370 км)
Погода в Chimoio (Мозамбик) (385 км)
Погода в Catandica (Мозамбик) (393 км)
Погода в Tete Chingodze (Мозамбик) (396 км)

Пояснения к столбцам:

Ветер - указаны скорость ветра в м/с - средняя за 10 мин, порывы в срок и между сроками (в фигурных скобках) и направление, откуда дует ветер: С - северный, СВ - северо-восточный, В - восточный, ЮВ - юго-восточный, Ю - южный, ЮЗ - юго-западный, З - западный, СЗ - северо-западный.
Видимость - горизонтальная дальность видимости в метрах или километрах. При видимости от 1 до 10 км при отсутствии осадков обычно наблюдается дымка, при ухудшении видимости до 1 км и менее - туман. В сухую погоду видимость может ухудшаться дымом, пылью или мглою.
Явления - указаны атмосферные явления, наблюдавшиеся в срок или в последний час перед сроком; фигурными скобками обозначены явления, наблюдавшиеся между сроками (за 1-3 часа до срока); квадратными скобками обозначены град или гололедные отложения с указанием их диаметра в мм.
Облачность - указаны через наклонную черту общая и нижняя облачность в баллах и высота нижней границы облаков в метрах; квадратными скобками обозначены формы облаков: Ci - перистые, Cs - перисто-слоистые, Cc - перисто-кучевые, Ac - высококучевые, As - высокослоистые, Sc - слоисто-кучевые, Ns - слоисто-дождевые, Cu - кучевые, Cb - кучево-дождевые. Подробнее классификацию облаков см. в Атласе облаков (PDF).
T - Температура воздуха - температура, измеренная на высоте 2 м над землей.
Td - Температура точки росы - температура, при понижении до которой содержащийся в воздухе водяной пар достигнет насыщения.
f - Относительная влажность воздуха - влажноcть воздуха, измеренная на высоте 2 м над землей.
Te - Эффективная температура - температура, которую ощущает одетый по сезону человек в тени. Характеристика душности погоды. При расчете учитывается влияние влажности воздуха и скорости ветра на теплоощущения человека.
Tes - Эффективная температура на солнце - температура, которую ощущает человек, с поправкой на солнечный нагрев. Характеристика знойности погоды. Зависит от высоты солнца над горизонтом, облачности и скорости ветра. Ночью, в пасмурную погоду, а также при ветре 12 м/с и более поправка равна нулю.
P - Атмосферное давление - приведенное к уровню моря атмосферное давление.
Po - Атмосферное давление - измеренное на уровне метеостанции атмосферное давление.
Tmin - Минимальная температура - минимум температуры воздуха на высоте 2 м над землей.
Tmax - Максимальная температура - максимум температуры воздуха на высоте 2 м над землей.
R - Количество осадков - Количество выпавших осадков за период времени, мм. При наведении курсора мыши на число - период времени, за который выпало указанное количество осадков.
R24 - Количество осадков - Количество выпавших осадков за 24 часа, мм.
S - Снежный покров - Высота снежного покрова, см. При наведении курсора мыши на число - состояние снежного покрова и степень покрытия местности в баллах.